Hourly Data Report for January 06, 2022

OTTAWA INTL A
ONTARIO
Current Station Operator: NAVCAN

45°19'00.000" N
75°40'00.000" W
114.90 m
6106001
71628
YOW

Download Data

Hourly Data (January 2022)
Hourly Data Report for January 6, 2022
TIME
LST
Temp Definition
°C
Dew Point Definition
°C
Rel Hum Definition
%
Precip. Amount Definition
mm

Wind Dir Definition
10's deg

Wind Spd Definition
km/h
Visibility Definition
km
Stn Press Definition
kPa
Hmdx Definition


Wind Chill Definition


Weather Definition


00:00 0.7 -3.8 72   23 32 24.1 98.55     LegendNANA
01:00 0.4 -3.8 74   24 24 24.1 98.64     Cloudy
02:00 -0.7 -5.9 68   24 35 24.1 98.74   -8 LegendNANA
03:00 -2.2 -6.2 74   23 32 16.1 98.84   -10 Snow
04:00 -3.5 -6.7 78   24 25 16.1 98.92   -10 Snow
05:00 -3.4 -7.5 73   23 21 24.1 99.01   -10 LegendNANA
06:00 -3.9 -7.4 76   23 29 24.1 99.11   -11 Snow
07:00 -4.2 -6.8 82   23 26 12.9 99.19   -11 Snow
08:00 -3.8 -7.3 77   24 26 16.1 99.25   -11 Snow
09:00 -3.8 -7.0 78   25 16 24.1 99.30   -9 Snow
10:00 -5.6 -8.3 81   29 19 8.1 99.50   -12 Snow Pellets
11:00 -7.3 -10.3 79   28 24 9.7 99.59   -15 Snow
12:00 -7.9 -11.3 77   28 20 16.1 99.64   -15 Snow
13:00 -7.7 -12.4 70   28 27 24.1 99.67   -16 Snow
14:00 -7.8 -12.7 68   30 25 24.1 99.73   -16 Snow
15:00 -8.2 -13.0 69   29 20 24.1 99.81   -16 LegendNANA
16:00 -9.3 -13.7 71   30 17 24.1 99.83   -16 Mainly Clear
17:00 -10.2 -14.6 70   30 13 24.1 99.88   -16 LegendNANA
18:00 -10.7 -14.7 73   29 12 24.1 99.98   -17 LegendNANA
19:00 -11.8 -15.1 77   31 9 24.1 99.97   -17 Snow
20:00 -12.5 -15.1 81   30 14 24.1 99.95   -20 LegendNANA
21:00 -12.4 -15.1 80   29 7 24.1 99.98   -17 LegendNANA
22:00 -13.9 -15.8 85   25 8 24.1 100.00   -19 Mostly Cloudy
23:00 -13.0 -15.1 85   24 7 24.1 99.99   -18 LegendNANA

Notes on Data Quality.

Legend

  • E = Estimated
  • M = Missing
  • NA = Not Available*
  • [empty] = Indicates an unobserved value
Date modified: